| time (UTC) | temp F | wind direction | speed knots | gust knots | rain 1hr in | rain 24hr in | rain mn in | humidity % | barometer mb |
| 20260503211528 | 61 | 218 | 3.5 | 6.1 | 0.00 | 0.00 | 0.00 | 71 | 1014.4 |
| 20260503210026 | 61 | 229 | 3.5 | 6.1 | 0.00 | 0.00 | 0.00 | 77 | 1014.4 |
| 20260503204526 | 61 | 215 | 4.3 | 7.0 | 0.00 | 0.00 | 0.00 | 78 | 1014.5 |
| 20260503203023 | 60 | 180 | 3.5 | 7.0 | 0.00 | 0.00 | 0.00 | 80 | 1014.5 |
| 20260503201529 | 59 | 171 | 5.2 | 7.0 | 0.00 | 0.00 | 0.00 | 80 | 1014.7 |
| 20260503200027 | 60 | 173 | 4.3 | 7.0 | 0.00 | 0.00 | 0.00 | 79 | 1014.7 |
| 20260503194526 | 59 | 180 | 1.7 | 7.0 | 0.00 | 0.00 | 0.00 | 78 | 1014.7 |
| 20260503193017 | 59 | 189 | 2.6 | 5.2 | 0.00 | 0.00 | 0.00 | 79 | 1015.0 |
| 20260503191517 | 59 | 207 | 3.5 | 6.1 | 0.00 | 0.00 | 0.00 | 78 | 1015.0 |
| 20260503190019 | 59 | 200 | 2.6 | 6.1 | 0.00 | 0.00 | 0.00 | 77 | 1014.8 |
| 20260503184520 | 59 | 217 | 3.5 | 7.0 | 0.00 | 0.00 | 0.00 | 77 | 1014.7 |
| 20260503183017 | 59 | 225 | 2.6 | 5.2 | 0.00 | 0.00 | 0.00 | 76 | 1014.6 |
| 20260503181514 | 58 | 209 | 3.5 | 6.1 | 0.00 | 0.00 | 0.00 | 79 | 1014.8 |
| 20260503180002 | 58 | 176 | 2.6 | 6.1 | 0.00 | 0.00 | 0.00 | 82 | 1015.0 |
| 20260503174600 | 57 | 176 | 2.6 | 6.1 | 0.00 | 0.00 | 0.00 | 83 | 1014.9 |
| 20260503173100 | 56 | 213 | 2.6 | 5.2 | 0.00 | 0.00 | 0.00 | 85 | 1014.9 |
| 20260503171555 | 56 | 215 | 1.7 | 3.5 | 0.00 | 0.00 | 0.00 | 84 | 1014.8 |
| 20260503081516 | 54 | 333 | 0.0 | 2.6 | 0.00 | 0.00 | 0.00 | 86 | 1013.0 |
| 20260503071506 | 54 | 333 | 0.0 | 2.6 | 0.00 | 0.00 | 0.00 | 87 | 1012.8 |
| 20260503060116 | 54 | 331 | 0.0 | 4.3 | 0.00 | 0.00 | 0.00 | 88 | 1012.6 |
| 20260503054600 | 54 | 350 | 2.6 | 5.2 | 0.00 | 0.00 | 0.00 | 88 | 1012.4 |
| 20260503053100 | 54 | 290 | 0.9 | 4.3 | 0.00 | 0.00 | 0.00 | 88 | 1012.4 |
| 20260503051600 | 54 | 288 | 0.9 | 4.3 | 0.00 | 0.00 | 0.00 | 89 | 1012.3 |
| 20260503050059 | 55 | 322 | 1.7 | 5.2 | 0.00 | 0.00 | 0.00 | 89 | 1012.4 |
| 20260503044626 | 55 | 348 | 1.7 | 4.3 | 0.00 | 0.00 | 0.00 | 89 | 1012.4 |
| 20260503043059 | 55 | 319 | 0.9 | 4.3 | 0.00 | 0.00 | 0.00 | 89 | 1012.6 |
| 20260503041558 | 55 | 345 | 0.9 | 7.8 | 0.00 | 0.00 | 0.00 | 88 | 1012.4 |
| 20260503040106 | 55 | 351 | 1.7 | 5.2 | 0.00 | 0.00 | 0.00 | 88 | 1012.3 |
| 20260503034600 | 55 | 355 | 1.7 | 5.2 | 0.00 | 0.00 | 0.00 | 88 | 1012.2 |
| 20260503033056 | 55 | 317 | 0.9 | 7.0 | 0.00 | 0.00 | 0.00 | 88 | 1012.3 |
| 20260503031555 | 55 | 319 | 0.9 | 3.5 | 0.00 | 0.00 | 0.00 | 87 | 1012.2 |
| 20260503030105 | 55 | 322 | 1.7 | 4.3 | 0.00 | 0.00 | 0.00 | 86 | 1011.7 |
| 20260503024559 | 56 | 317 | 0.9 | 4.3 | 0.00 | 0.00 | 0.00 | 85 | 1011.7 |
| 20260503023059 | 57 | 322 | 1.7 | 4.3 | 0.00 | 0.00 | 0.00 | 83 | 1011.7 |
| 20260503021555 | 57 | 294 | 0.9 | 7.0 | 0.00 | 0.00 | 0.00 | 82 | 1011.8 |
| 20260503020059 | 58 | 270 | 2.6 | 8.7 | 0.00 | 0.00 | 0.00 | 80 | 1011.6 |
| 20260503014555 | 59 | 314 | 2.6 | 8.7 | 0.00 | 0.00 | 0.00 | 81 | 1011.8 |
| 20260503013057 | 59 | 281 | 1.7 | 7.8 | 0.00 | 0.00 | 0.00 | 80 | 1011.9 |
| 20260503011553 | 60 | 266 | 2.6 | 7.8 | 0.00 | 0.00 | 0.00 | 79 | 1011.9 |
| 20260503010048 | 60 | 284 | 2.6 | 8.7 | 0.00 | 0.00 | 0.00 | 78 | 1012.0 |
| 20260503004550 | 60 | 250 | 4.3 | 7.8 | 0.00 | 0.00 | 0.00 | 79 | 1012.1 |
| 20260503003050 | 60 | 271 | 6.1 | 9.6 | 0.00 | 0.00 | 0.00 | 77 | 1012.1 |
| 20260503001550 | 62 | 253 | 3.5 | 8.7 | 0.00 | 0.00 | 0.00 | 75 | 1012.2 |
| 20260503000048 | 61 | 263 | 5.2 | 9.6 | 0.00 | 0.00 | 0.00 | 77 | 1012.2 |
| 20260502234552 | 60 | 286 | 5.2 | 10.4 | 0.00 | 0.00 | 0.00 | 76 | 1012.4 |
| 20260502233038 | 60 | 259 | 6.1 | 9.6 | 0.00 | 0.00 | 0.00 | 77 | 1012.4 |
| 20260502231536 | 60 | 248 | 5.2 | 8.7 | 0.00 | 0.00 | 0.00 | 75 | 1012.5 |
| 20260502230033 | 60 | 269 | 5.2 | 9.6 | 0.00 | 0.00 | 0.00 | 74 | 1012.7 |
| 20260502224532 | 60 | 248 | 5.2 | 7.8 | 0.00 | 0.00 | 0.00 | 75 | 1012.9 |
| 20260502223038 | 60 | 278 | 3.5 | 8.7 | 0.00 | 0.00 | 0.00 | 76 | 1013.3 |
| 20260502221527 | 60 | 254 | 3.5 | 6.1 | 0.00 | 0.00 | 0.00 | 75 | 1013.5 |
| 20260502220027 | 60 | 244 | 3.5 | 7.0 | 0.00 | 0.00 | 0.00 | 76 | 1013.6 |
| 20260502214525 | 61 | 238 | 3.5 | 7.8 | 0.00 | 0.00 | 0.00 | 74 | 1013.7 |
| 20260502213023 | 60 | 248 | 2.6 | 7.8 | 0.00 | 0.00 | 0.00 | 77 | 1013.9 |